Location: Rodson Ranch
(38.7188°N, 119.3202°W)
Time: 16:25:32
(UTC+00:00)

ERS-2 - Pass Details

Date: 29 October 2020
Orbit: 493 x 498 km, 98.6° (Epoch: 23 November)

Event Time Altitude Azimuth Distance (km) Brightness Sun altitude
Rises 13:38:25 0° 209° (SSW) 2,565 5.5 -9.0°
Reaches altitude 10° 13:41:31 10° 239° (WSW) 1,688 4.4 -8.4°
Maximum altitude 13:43:09 13° 266° (W) 1,531 4.0 -8.1°
Drops below altitude 10° 13:44:48 10° 293° (WNW) 1,693 4.2 -7.8°
Enters shadow 13:45:14 - 299° (WNW) 1,779 4.3 -7.7°
